"Pseudo-MPEC" for P10O8L2

Created 2019 Jun 20 19:07:17 UT using Find_Orb

Click here for an explanation of pseudo-MPECs

 
 Astrometry: 
     P10O8L2  C2019 05 27yCK[/Awbirw828`!(Y7N7(0X+UJb]tU]qZUpByh@7T2x0:W!Cn)-F51
     P10O8L2  C2019 05 274cPwF$,)uAUPrwO:=gI)?YDvZADN$,7.)^2jAaeC;omkde23nQFlF51
     P10O8L2  C2019 05 27'Z3%xb)+y7h7#23dQ0mM8D8JW-UWS\7gajODO([=t^*-H[=(NwU@F51
     P10O8L2  C2019 06 01AHDR/y/b5GOP7XAstrometrytfa/]5mgvo#9Q+kaL2cperJtZ_udF52
     P10O8L2  C2019 06 016fBdR]tjredacted;Lg1H74bB@-)l?l^f3S.=u9'Qqclick#B)L3F52
     P10O8L2  C2019 06 01=hU]u9)n_FS$ffWltNbIgiQCHv?+,Ijb`?Uj3:j@rV,OI[W1*ET5F52
     P10O8L2  C2019 06 01=R^mKioXl9tSXhereOwFCgfforCMEF.W2l@(sr@explanationgDF52

Station data:
(F51) Pan-STARRS 1, Haleakala  (N20.707235 W156.255910)  US/Hawaii.
   Observers N. Primak, A. Schultz, S. Watters, J. Thiel, T. Goggia. Measurer
   PS1 Science Consortium. 1.8-m Ritchey-Chrétien + CCD.
(F52) Pan-STARRS 2, Haleakala  (N20.707384 W156.255910)  US/Hawaii. 1.8-m
   Ritchey-Chrétien + CCD.

Orbital elements:  P10O8L2
   Perihelion 2021 Feb 19.251240 +/- 510 TT =  6:01:47 (JD 2459264.751240)
Epoch 2019 Jun  1.0 TT = JDT 2458635.5   Earth MOID: 0.4222   Ma: 0.0225
M 201.50284559 +/- 110              (J2000 ecliptic)          AutoNEOCP
n   0.25188214 +/- 0.15             Peri.  317.93944 +/- 90
a   2.48315858 +/- 0.986            Node    40.63978 +/- 18
e   0.4518188 +/- 0.189             Incl.   21.57659 +/- 9
P   3.91                   H 16.2   G  0.15   U 11.5  SR
q 1.36122076 +/- 1.73    Q 3.60509640 +/- 13.3
From 7 observations 2019 May 27-June 1; mean residual 0".24
Residuals in arcseconds: 
190527 F51  .32-  .27+    190601 F52  .19+  .55+    190601 F52  .09+  .23-    
190527 F51  .14+  .05-    190601 F52  .10-  .11-    
190527 F51  .18+  .22-    190601 F52  .18-  .20-    

Ephemerides (geocentric):
Date (UTC) HH   RA              Dec         delta   r     elong  mag " sig PA
---- -- -- --  -------------   -----------  ------ ------ -----  --- ---- ---
2019 06 20 19  11 58 45.580   +12 13 00.62  3.4717 3.5481  86.0 22.6  927  23
2019 06 20 20  11 58 46.333   +12 12 41.99  3.4723 3.5481  85.9 22.6  930  23
2019 06 20 21  11 58 47.087   +12 12 23.34  3.4729 3.5480  85.9 22.6  934  23
2019 06 20 22  11 58 47.843   +12 12 04.70  3.4734 3.5480  85.9 22.6  937  23
2019 06 20 23  11 58 48.600   +12 11 46.04  3.4740 3.5479  85.8 22.6  940  23
2019 06 21 00  11 58 49.359   +12 11 27.38  3.4746 3.5479  85.8 22.6  944  23
2019 06 21 01  11 58 50.119   +12 11 08.72  3.4752 3.5478  85.8 22.6  947  23
2019 06 21 02  11 58 50.881   +12 10 50.05  3.4757 3.5478  85.7 22.6  951  23
2019 06 21 03  11 58 51.645   +12 10 31.38  3.4763 3.5478  85.7 22.6  954  23
2019 06 21 04  11 58 52.410   +12 10 12.70  3.4769 3.5477  85.7 22.6  957  23
2019 06 21 05  11 58 53.176   +12 09 54.01  3.4774 3.5477  85.6 22.6  961  23
2019 06 21 06  11 58 53.944   +12 09 35.32  3.4780 3.5476  85.6 22.6  964  23
2019 06 21 07  11 58 54.714   +12 09 16.63  3.4786 3.5476  85.6 22.6  968  23
2019 06 21 08  11 58 55.485   +12 08 57.93  3.4791 3.5475  85.5 22.6  971  23
2019 06 21 09  11 58 56.257   +12 08 39.22  3.4797 3.5475  85.5 22.6  975  23
2019 06 21 10  11 58 57.031   +12 08 20.51  3.4803 3.5474  85.5 22.6  978  23
2019 06 21 11  11 58 57.807   +12 08 01.79  3.4808 3.5474  85.4 22.6  982  23
2019 06 21 12  11 58 58.584   +12 07 43.07  3.4814 3.5473  85.4 22.6  985  23
2019 06 21 13  11 58 59.362   +12 07 24.35  3.4820 3.5473  85.4 22.6  989  23
2019 06 21 14  11 59 00.142   +12 07 05.61  3.4825 3.5473  85.3 22.6  992  23
2019 06 21 15  11 59 00.924   +12 06 46.88  3.4831 3.5472  85.3 22.6  996  23
2019 06 21 16  11 59 01.707   +12 06 28.13  3.4837 3.5472  85.2 22.6  999  23
2019 06 21 17  11 59 02.492   +12 06 09.39  3.4843 3.5471  85.2 22.6 1003  23
2019 06 21 18  11 59 03.278   +12 05 50.63  3.4848 3.5471  85.2 22.6 1006  23
2019 06 21 19  11 59 04.065   +12 05 31.88  3.4854 3.5470  85.1 22.6 1010  23
2019 06 21 20  11 59 04.854   +12 05 13.11  3.4860 3.5470  85.1 22.6 1013  23
2019 06 21 21  11 59 05.645   +12 04 54.35  3.4865 3.5469  85.1 22.6 1017  23
2019 06 21 22  11 59 06.437   +12 04 35.57  3.4871 3.5469  85.0 22.6 1020  23
2019 06 21 23  11 59 07.231   +12 04 16.79  3.4877 3.5468  85.0 22.6 1024  23
2019 06 22 00  11 59 08.026   +12 03 58.01  3.4882 3.5468  85.0 22.6 1027  23
2019 06 22 01  11 59 08.823   +12 03 39.22  3.4888 3.5468  84.9 22.6 1031  23
2019 06 22 02  11 59 09.621   +12 03 20.43  3.4894 3.5467  84.9 22.6 1034  23
2019 06 22 03  11 59 10.420   +12 03 01.63  3.4899 3.5467  84.9 22.6 1038  23
2019 06 22 04  11 59 11.221   +12 02 42.83  3.4905 3.5466  84.8 22.6 1041  23
2019 06 22 05  11 59 12.024   +12 02 24.02  3.4911 3.5466  84.8 22.6 1045  23
2019 06 22 06  11 59 12.828   +12 02 05.20  3.4916 3.5465  84.8 22.6 1049  23
2019 06 22 07  11 59 13.634   +12 01 46.38  3.4922 3.5465  84.7 22.6 1052  23
2019 06 22 08  11 59 14.441   +12 01 27.56  3.4928 3.5464  84.7 22.6 1056  23
2019 06 22 09  11 59 15.249   +12 01 08.73  3.4933 3.5464  84.7 22.6 1059  23
2019 06 22 10  11 59 16.060   +12 00 49.89  3.4939 3.5463  84.6 22.6 1063  23
2019 06 22 11  11 59 16.871   +12 00 31.05  3.4945 3.5463  84.6 22.6 1067  23
2019 06 22 12  11 59 17.684   +12 00 12.21  3.4950 3.5462  84.6 22.6 1070  23
2019 06 22 13  11 59 18.499   +11 59 53.36  3.4956 3.5462  84.5 22.6 1074  23
2019 06 22 14  11 59 19.315   +11 59 34.50  3.4962 3.5462  84.5 22.6 1077  23
2019 06 22 15  11 59 20.132   +11 59 15.64  3.4967 3.5461  84.5 22.6 1081  23
2019 06 22 16  11 59 20.951   +11 58 56.78  3.4973 3.5461  84.4 22.6 1085  23
2019 06 22 17  11 59 21.772   +11 58 37.91  3.4979 3.5460  84.4 22.6 1088  23
2019 06 22 18  11 59 22.594   +11 58 19.03  3.4984 3.5460  84.4 22.6 1092  23